Location: Chippewa Lake
(41.0698°N, 81.9010°W)
Time: 09:59:54
(UTC+00:00)

SL-8 Rocket - Visible Passes

Search period start: 28 September 2021 00:00
Search period end: 08 October 2021 00:00
Orbit: 958 x 989 km, 82.9° (Epoch: 27 September)

Date Brightness Start Highest point End Pass type
(mag) Time Alt. Az. Time Alt. Az. Time Alt. Az.
28 Sep 4.1 01:16:27 10° S 01:22:43 78° W 01:29:04 10° N visible
28 Sep 6.8 03:07:04 10° W 03:09:10 12° WNW 03:11:16 10° NW visible
28 Sep 7.0 10:29:40 10° NE 10:32:26 13° ENE 10:35:09 10° E visible
28 Sep 4.8 23:57:32 10° SE 00:02:42 28° E 00:07:55 10° NNE visible
29 Sep 5.0 01:41:47 10° SSW 01:47:45 44° WNW 01:53:46 10° N visible
29 Sep 6.7 10:52:56 10° NNE 10:57:51 23° ENE 11:02:43 10° ESE visible
30 Sep 4.2 00:21:20 10° SSE 00:27:19 50° E 00:33:23 10° NNE visible
30 Sep 6.0 02:07:51 10° SW 02:12:56 25° WNW 02:18:05 10° NNW visible
01 Oct 3.9 00:45:50 10° S 00:52:06 88° E 00:58:28 10° N visible
01 Oct 6.7 02:35:06 10° W 02:38:20 14° WNW 02:41:36 10° NNW visible
01 Oct 7.3 10:00:33 10° NE 10:01:36 10° ENE 10:02:38 10° ENE visible
01 Oct 5.0 23:27:26 10° SE 23:32:12 23° E 23:37:00 10° NE visible
02 Oct 4.8 01:10:58 10° SSW 01:17:04 53° WNW 01:23:15 10° N visible
02 Oct 6.8 10:22:41 10° NNE 10:27:06 19° ENE 10:31:28 10° ESE visible
02 Oct 4.4 23:50:58 10° SSE 23:56:47 41° E 00:02:39 10° NNE visible
03 Oct 5.8 01:36:47 10° SW 01:42:12 30° WNW 01:47:43 10° NNW visible
03 Oct 6.0 10:46:43 10° N 10:52:23 34° ENE 10:57:58 10° SE visible
04 Oct 3.9 00:15:15 10° S 00:21:31 74° E 00:27:50 10° N visible
04 Oct 6.6 02:03:32 10° WSW 02:07:33 17° WNW 02:11:34 10° NNW visible
05 Oct 4.5 00:40:12 10° SSW 00:46:25 64° W 00:52:43 10° N visible
05 Oct 6.9 09:52:33 10° NNE 09:56:19 16° ENE 10:00:03 10° ESE visible
05 Oct 4.6 23:20:41 10° SSE 23:26:15 35° E 23:31:52 10° NNE visible
06 Oct 5.5 01:05:47 10° SW 01:11:30 36° WNW 01:17:17 10° N visible
06 Oct 6.2 10:16:19 10° NNE 10:21:40 28° ENE 10:26:56 10° SE visible
06 Oct 4.0 23:44:45 10° S 23:50:56 62° E 23:57:10 10° NNE visible
07 Oct 6.4 01:32:11 10° WSW 01:36:46 21° WNW 01:41:23 10° NNW visible
07 Oct 5.1 10:40:43 10° N 10:46:49 50° ENE 10:52:49 10° SSE visible
